Location: Hawaiian Village Mobile Home Park
(32.8359°N, 116.9792°W)
Time: 20:11:58
(UTC+00:00)

ADEOS - Pass Details

Date: 06 December 2021
Orbit: 792 x 795 km, 98.9° (Epoch: 18 January)

Event Time Altitude Azimuth Distance (km) Brightness Sun altitude
Rises 01:16:03 0° 191° (S) 3,279 7.3 -7.5°
Reaches altitude 10° 01:18:37 10° 202° (SSW) 2,354 6.7 -8.0°
Maximum altitude 01:23:09 30° 262° (W) 1,392 5.8 -8.9°
Drops below altitude 10° 01:27:42 10° 323° (NW) 2,367 6.3 -9.8°
Sets 01:30:19 0° 334° (NNW) 3,300 6.9 -10.3°
